Location: West Sayville
(40.7279°N, 73.0976°W)
Time: 02:15:43
(UTC+00:00)

Helios 1A Rocket - Visible Passes

Search period start: 01 March 2021 00:00
Search period end: 11 March 2021 00:00
Orbit: 562 x 587 km, 98.3° (Epoch: 28 February)

Date Brightness Start Highest point End Pass type
(mag) Time Alt. Az. Time Alt. Az. Time Alt. Az.
01 Mar 2.8 23:56:07 10° SSE 00:00:11 84° ENE 00:04:15 10° NNW visible
02 Mar 2.8 23:59:17 10° SSE 00:03:20 90° SW 00:07:25 10° NNW visible
04 Mar 2.9 00:02:27 10° SSE 00:06:31 83° WSW 00:10:34 10° NNW visible
05 Mar 3.0 00:05:38 10° S 00:09:41 77° WSW 00:13:44 10° NNW visible
06 Mar 3.1 00:08:49 10° S 00:12:51 71° WSW 00:16:53 10° NNW visible
07 Mar 3.3 00:12:01 10° S 00:16:01 65° WSW 00:20:02 10° NNW visible
08 Mar 3.4 00:15:12 10° S 00:19:11 60° WSW 00:23:11 10° NNW visible
09 Mar 3.6 00:18:24 10° S 00:22:21 55° WSW 00:26:20 10° NNW visible
10 Mar 3.7 00:21:37 10° S 00:25:32 50° W 00:29:28 10° NNW visible
